Wind_Speed
27 31 31 31 31 29 21 16 19 20 14 6 24 33 38 31 34 24 21 8 7 8 6 6 6 6 8 7 6 7 8 8 9 8 8 10 10 10 9 8 8 8 8 8 8 9 9 10 10
32 33 34 35 34 29 20 20 19 21 22 16 25 33 39 47 33 31 29 19 14 13 9 9 10 10 12 11 9 8 8 8 9 9 9 10 11 10 12 11 11 11 10 11 12 12 11 12 12
34 37 37 39 34 29 20 24 24 27 11 21 29 34 37 40 40 28 25 24 23 19 13 14 14 12 14 13 12 9 7 6 7 11 11 11 12 12 12 13 13 14 14 14 15 15 14 13 14
40 39 41 41 36 31 27 27 26 30 19 20 30 40 46 39 34 25 15 15 18 16 13 14 14 12 13 13 12 10 8 7 7 7 8 9 9 10 11 11 12 14 15 16 16 16 16 17 17
45 44 43 43 37 34 33 31 32 32 31 20 26 36 46 40 34 31 28 23 23 20 17 16 15 15 16 16 14 13 13 12 11 10 9 10 10 10 10 11 13 13 14 14 15 15 16 17 19
49 49 48 43 38 38 37 34 30 37 38 32 31 39 49 38 35 36 30 26 26 26 21 20 20 19 19 18 18 17 16 16 17 17 17 14 15 15 14 14 14 16 18 18 18 18 18 19 20
47 50 48 47 43 43 39 35 34 29 40 42 39 40 47 44 43 39 32 31 29 31 29 25 25 24 22 22 22 21 19 20 19 20 20 21 21 19 17 17 17 19 22 22 23 22 22 23 24
49 53 48 46 44 43 36 38 35 31 44 41 42 46 49 52 48 47 40 32 31 34 33 30 28 29 27 25 25 24 24 24 23 22 21 21 22 23 23 22 21 21 23 25 27 27 27 27 28
48 55 51 47 44 37 37 40 36 27 32 45 50 47 54 54 55 55 44 28 29 34 35 33 32 33 30 29 29 27 26 24 23 23 23 22 22 21 21 23 23 24 26 27 29 30 30 31 31
50 52 48 36 42 41 41 40 36 35 36 39 44 45 45 47 48 47 49 35 28 31 37 36 35 35 34 32 32 29 27 25 24 24 24 24 25 25 24 24 25 26 27 29 30 31 32 32 33
47 48 36 38 38 36 37 42 42 44 47 50 50 46 44 45 45 47 48 44 35 30 35 34 34 33 37 35 32 30 27 24 24 26 26 26 25 25 27 27 27 27 28 30 32 34 35 36 36
48 44 42 41 41 41 39 44 46 49 52 55 56 44 45 46 46 49 40 44 48 40 36 33 31 38 41 40 34 30 26 24 25 27 28 28 28 27 25 27 28 28 30 31 32 36 37 38 39
51 49 48 45 44 42 40 41 41 42 47 55 54 41 43 41 48 41 35 36 41 41 25 23 26 37 44 49 40 29 25 24 24 29 31 30 27 26 26 26 28 28 29 29 33 38 40 41 43
52 53 51 51 46 43 43 44 47 41 41 44 46 40 37 36 39 28 26 29 39 44 42 28 37 44 52 55 33 27 24 25 26 30 29 27 25 26 27 28 27 28 27 30 31 32 32 34 37
54 56 56 54 50 47 46 48 44 43 44 47 46 43 40 37 32 27 25 32 32 33 35 32 31 31 32 30 28 32 24 21 24 28 27 27 26 28 27 28 30 30 30 31 28 31 32 30 31
59 60 62 54 52 51 53 52 43 47 48 45 45 43 42 33 31 30 27 31 32 32 32 32 32 23 14 24 24 22 18 20 25 27 27 28 30 32 32 31 33 32 29 32 33 35 35 37 39
62 61 61 54 52 52 54 56 49 49 50 47 44 42 42 34 30 29 29 33 31 32 35 34 29 36 48 25 19 18 19 21 23 23 25 29 31 31 33 35 36 35 36 34 36 35 37 37 38
66 65 62 59 51 49 51 54 48 46 50 48 47 44 43 36 32 29 32 33 34 35 36 36 33 41 21 23 31 22 16 19 19 22 26 30 30 33 34 36 36 37 39 38 39 39 39 38 38
59 57 59 57 50 51 53 53 51 50 45 47 49 48 44 39 33 33 34 34 37 37 39 34 33 13 41 30 25 17 21 22 21 23 27 29 32 34 35 37 39 41 41 39 40 42 41 40 38
67 66 66 66 60 54 53 57 55 53 49 45 45 47 44 38 36 37 39 36 37 38 38 35 34 44 31 43 26 19 24 19 21 26 29 31 33 35 37 38 40 40 40 40 41 38 38 38 38
70 70 68 67 61 58 59 57 58 52 52 48 46 46 45 39 41 39 41 37 35 39 38 37 37 31 35 28 20 15 19 21 25 28 30 32 34 34 36 38 39 39 41 44 44 39 36 36 37
76 71 70 68 66 67 58 59 66 53 44 51 47 49 47 42 41 40 41 39 36 38 39 38 34 32 26 29 21 23 20 23 25 29 30 32 32 34 34 33 33 39 41 44 36 37 33 33 32
74 78 70 71 72 69 67 58 60 52 42 51 51 46 47 46 44 40 41 40 38 37 37 35 27 32 23 33 26 22 22 22 26 29 30 30 32 30 31 31 37 34 29 34 27 26 33 31 31
40 60 63 71 71 77 75 61 61 63 47 53 59 44 44 46 45 45 45 44 40 37 38 35 27 35 32 28 25 23 21 26 29 28 28 31 31 33 32 35 37 36 38 44 38 32 28 27 28
40 37 47 55 70 74 77 72 64 64 63 63 59 49 43 45 46 46 47 48 44 39 38 35 34 33 32 29 26 26 25 30 28 26 30 32 33 34 34 33 34 37 43 43 48 37 27 29 31
30 36 50 42 54 67 79 82 71 62 63 60 57 50 43 44 44 46 47 50 46 43 40 41 31 29 30 30 31 30 31 30 27 28 31 32 35 36 33 32 35 38 40 43 33 31 27 29 33
16 29 33 48 28 54 62 70 74 64 61 60 56 54 47 46 43 47 48 51 48 46 42 34 27 29 32 32 32 34 33 29 29 29 32 34 36 35 34 35 37 39 34 27 29 28 32 38 33
16 15 31 40 51 46 50 58 66 67 69 62 60 62 55 43 49 52 50 52 52 47 44 28 34 36 35 32 32 32 31 31 28 31 34 34 36 35 34 34 35 34 31 33 31 31 24 26 22
19 18 25 32 42 40 40 46 51 54 62 61 58 52 60 47 51 49 46 47 48 50 46 33 38 35 33 32 32 33 33 30 30 31 34 35 36 33 32 33 33 30 28 23 20 22 26 26 28
24 22 24 37 34 43 50 44 34 57 62 61 54 53 44 46 52 53 48 45 47 50 39 39 42 35 34 30 31 33 31 30 31 32 34 36 35 32 32 31 26 22 25 26 28 29 33 38 39
Wind_Direction
248 241 243 240 239 239 227 218 198 199 165 206 246 246 247 231 244 255 279 313 226 209 253 275 254 284 295 297 302 305 296 297 296 301 306 309 309 311 313 318 320 319 314 310 311 310 311 311 309
251 247 243 241 239 239 225 219 216 198 207 218 249 245 252 255 251 253 264 247 278 250 237 270 260 267 280 281 288 297 306 294 282 280 282 285 291 299 303 306 305 302 300 301 304 303 300 298 296
254 250 247 244 243 240 227 224 218 196 190 269 259 250 254 254 255 260 269 258 261 264 268 270 264 265 271 274 273 279 297 306 289 271 271 276 283 283 289 295 297 297 300 300 301 299 296 296 299
256 252 249 249 246 245 236 223 224 221 199 256 268 267 263 250 255 247 269 265 255 263 264 262 263 259 259 266 270 276 285 292 295 289 274 274 277 283 291 292 288 289 292 294 294 292 290 291 293
253 253 252 250 248 248 242 231 220 221 206 227 260 258 259 258 254 248 241 246 254 261 255 254 257 255 256 261 267 275 280 279 271 264 254 269 274 274 277 282 288 290 287 284 284 285 289 291 293
252 252 251 252 252 248 246 239 227 231 219 205 249 253 259 260 257 257 253 251 261 260 257 258 257 254 254 261 267 270 272 275 281 280 277 272 269 269 266 269 274 279 278 274 274 276 279 281 284
250 251 250 247 244 242 243 242 238 234 237 227 220 246 257 261 263 262 252 251 250 256 257 253 255 258 259 261 264 270 273 274 276 276 277 280 279 278 275 274 270 273 277 279 278 279 280 281 282
245 245 245 247 243 242 246 242 239 216 221 228 242 233 244 258 263 261 257 250 251 259 259 260 260 263 261 260 264 266 272 277 277 278 279 278 279 282 283 277 270 270 273 278 282 283 283 281 283
244 239 244 246 245 247 247 243 240 230 226 219 230 242 242 249 257 262 263 253 258 265 268 269 266 265 263 261 262 263 266 274 280 284 282 283 282 281 277 277 279 277 274 273 275 280 283 285 288
246 244 243 246 243 239 237 239 231 214 221 234 242 240 251 254 260 268 272 266 259 260 263 260 261 263 264 263 262 264 271 275 281 281 280 280 282 280 276 273 270 267 269 272 274 275 277 280 283
252 245 249 240 240 235 229 233 225 218 224 229 231 239 256 260 267 267 273 278 274 259 253 253 255 261 262 261 262 266 267 274 280 278 279 282 279 277 278 278 277 278 274 273 275 276 280 284 283
247 248 245 242 242 237 227 226 231 221 227 238 241 238 241 254 260 270 275 279 272 264 240 252 257 257 253 259 259 259 262 267 271 276 277 277 281 286 284 283 279 277 275 274 275 275 275 276 277
246 242 241 238 239 238 236 235 237 238 237 243 249 247 242 245 258 257 271 276 277 276 214 228 234 247 256 252 239 246 256 263 272 272 273 278 282 284 282 281 282 282 281 280 275 275 279 281 279
244 243 240 239 237 238 238 234 237 236 242 246 250 247 248 245 254 259 249 257 253 263 271 261 272 274 238 230 228 236 242 253 260 265 273 280 282 279 280 282 284 287 288 285 286 283 283 283 285
245 244 240 240 242 240 238 234 235 238 236 244 248 253 252 249 251 256 254 250 247 250 261 263 245 280 303 230 227 225 231 252 257 265 272 280 282 285 288 290 296 293 291 293 294 298 297 294 293
244 244 244 241 241 240 236 239 236 237 239 240 247 249 253 251 251 253 254 251 253 254 252 258 266 253 219 242 229 220 231 249 258 263 269 277 287 295 299 300 300 300 303 304 305 304 299 300 300
246 249 249 244 244 244 242 239 230 233 239 239 241 247 249 248 246 251 250 250 247 253 257 261 266 266 262 245 238 238 231 242 262 278 283 285 290 294 295 298 301 302 303 302 300 297 297 298 298
253 254 252 248 241 247 247 242 240 237 237 239 242 242 247 244 244 241 244 248 247 252 255 256 258 257 256 227 243 241 249 256 267 280 284 287 291 289 295 296 299 299 301 303 301 300 297 296 297
245 246 247 244 240 241 245 241 238 242 240 239 239 241 242 242 237 239 242 246 245 244 251 258 262 311 262 230 229 232 248 258 269 280 281 285 285 290 295 299 301 302 303 303 301 300 297 296 297
243 244 240 241 239 239 240 242 237 240 236 237 239 238 236 236 236 233 240 242 247 243 244 248 256 262 280 196 197 219 242 262 270 270 275 280 286 295 300 303 301 301 303 300 296 298 298 298 298
245 245 241 241 241 242 244 237 238 238 240 233 235 236 233 230 234 234 237 240 242 243 243 247 251 253 275 268 245 236 246 255 262 269 277 285 293 298 298 301 303 304 299 299 299 297 300 300 301
246 246 243 242 242 240 241 247 240 234 232 232 228 232 234 232 232 232 237 235 234 241 243 249 250 261 250 254 252 248 253 259 269 276 280 285 292 295 298 299 300 302 300 301 304 293 299 304 306
246 246 244 243 242 241 234 231 239 234 227 235 232 233 234 235 234 234 235 239 233 235 242 250 256 219 261 256 262 257 257 265 265 267 276 287 290 299 302 304 307 305 302 312 321 298 299 304 306
237 231 237 235 237 237 233 226 233 235 233 238 239 230 230 230 230 229 230 232 237 232 236 242 239 244 249 260 267 268 267 265 266 276 286 293 300 304 303 305 306 306 300 308 307 304 298 298 304
222 224 235 228 223 234 235 231 223 232 234 237 234 239 225 226 228 229 229 232 231 231 234 238 241 247 255 261 265 266 264 263 274 283 290 294 298 302 305 308 305 306 302 304 295 290 289 296 306
225 228 227 228 232 229 238 237 228 230 231 231 235 240 221 221 225 227 225 232 228 230 229 235 241 252 255 258 265 267 267 270 279 284 290 293 301 305 309 306 304 302 306 310 297 281 283 297 299
219 222 226 226 222 232 231 232 232 217 222 227 226 233 233 222 217 222 222 230 228 229 233 230 232 238 244 253 260 262 265 271 277 287 288 296 302 307 306 303 301 304 307 303 301 302 295 297 288
254 228 218 226 232 231 227 229 221 212 221 224 228 229 228 217 218 221 221 223 228 229 234 221 226 236 245 252 257 262 264 269 278 281 287 296 300 302 304 305 306 305 301 300 301 289 295 303 292
232 216 218 219 229 239 231 225 215 213 212 213 223 219 227 214 213 219 223 226 226 230 232 225 233 233 242 250 256 258 261 267 274 279 286 292 297 303 307 305 303 302 303 308 312 305 299 290 287
230 216 220 225 222 232 235 215 197 208 200 200 209 212 208 218 213 216 221 225 228 230 230 228 234 237 243 246 249 255 261 267 272 279 286 291 296 302 300 298 301 297 296 293 293 295 295 294 293
Height
5883 5883 5882 5885 5887 5888 5894 5900 5902 5903 5903 5903 5910 5912 5908 5909 5906 5913 5914 5922 5917 5918 5921 5922 5922 5921 5922 5923 5923 5924 5925 5925 5925 5925 5924 5924 5924 5924 5923 5922 5922 5921 5921 5921 5920 5920 5919 5919 5918
5875 5875 5877 5877 5880 5883 5892 5895 5898 5900 5898 5897 5901 5904 5906 5903 5905 5908 5911 5917 5918 5921 5918 5919 5920 5920 5920 5921 5921 5922 5923 5923 5923 5923 5923 5922 5922 5922 5922 5922 5921 5920 5920 5920 5919 5918 5917 5916 5915
5868 5868 5870 5870 5873 5878 5888 5890 5893 5895 5893 5894 5895 5895 5896 5895 5899 5910 5911 5914 5917 5918 5915 5916 5918 5918 5919 5919 5920 5921 5921 5921 5920 5921 5921 5921 5920 5920 5920 5921 5920 5919 5918 5918 5917 5917 5916 5915 5914
5859 5860 5862 5862 5869 5875 5881 5886 5889 5893 5890 5887 5888 5887 5882 5888 5896 5906 5905 5906 5909 5911 5913 5914 5916 5916 5917 5918 5919 5919 5919 5918 5918 5919 5919 5919 5918 5918 5919 5918 5918 5917 5916 5915 5914 5913 5912 5912 5911
5852 5852 5854 5857 5866 5869 5873 5878 5881 5883 5885 5884 5881 5881 5874 5879 5889 5898 5906 5905 5907 5909 5911 5911 5913 5914 5915 5916 5917 5917 5918 5918 5917 5917 5917 5917 5917 5916 5916 5915 5915 5914 5913 5912 5910 5910 5910 5909 5908
5842 5845 5847 5852 5860 5861 5864 5870 5876 5877 5877 5878 5878 5875 5867 5875 5878 5886 5896 5900 5902 5903 5906 5908 5909 5911 5912 5914 5915 5915 5915 5915 5914 5914 5914 5913 5913 5913 5913 5912 5911 5910 5910 5908 5907 5906 5906 5906 5905
5837 5836 5839 5844 5850 5851 5858 5862 5867 5873 5874 5873 5875 5873 5867 5868 5871 5876 5890 5896 5899 5898 5901 5904 5907 5908 5909 5911 5912 5912 5912 5912 5911 5911 5911 5910 5909 5909 5909 5908 5907 5906 5906 5905 5904 5903 5902 5902 5901
5828 5824 5829 5834 5842 5848 5852 5856 5859 5862 5867 5870 5868 5870 5866 5863 5865 5867 5879 5888 5893 5892 5896 5900 5903 5903 5905 5906 5907 5908 5908 5908 5908 5908 5907 5906 5905 5904 5905 5904 5902 5901 5901 5901 5900 5900 5898 5896 5896
5813 5813 5821 5831 5836 5844 5843 5843 5846 5850 5853 5857 5859 5859 5863 5861 5859 5858 5870 5887 5891 5891 5891 5894 5895 5897 5899 5900 5901 5902 5902 5903 5903 5903 5903 5901 5901 5900 5899 5898 5897 5896 5895 5894 5894 5894 5893 5891 5891
5801 5807 5816 5826 5824 5829 5833 5834 5839 5842 5843 5847 5851 5854 5855 5856 5857 5859 5859 5877 5888 5887 5884 5885 5886 5889 5892 5895 5897 5897 5899 5900 5899 5898 5897 5896 5895 5894 5893 5892 5890 5889 5888 5888 5887 5886 5886 5884 5883
5796 5801 5812 5812 5813 5817 5822 5823 5827 5830 5830 5834 5841 5850 5849 5847 5849 5857 5860 5864 5876 5880 5876 5879 5880 5881 5884 5888 5891 5893 5893 5894 5894 5893 5891 5889 5889 5888 5887 5885 5885 5884 5883 5883 5882 5880 5878 5877 5876
5784 5792 5796 5802 5803 5807 5811 5812 5816 5819 5822 5824 5829 5844 5845 5843 5847 5848 5857 5855 5858 5865 5872 5869 5875 5871 5874 5877 5882 5885 5886 5887 5888 5888 5886 5884 5883 5882 5882 5878 5878 5877 5876 5876 5875 5873 5871 5869 5868
5773 5778 5781 5788 5792 5799 5803 5807 5811 5816 5821 5819 5822 5835 5836 5841 5837 5855 5854 5849 5845 5844 5813 5851 5848 5854 5865 5865 5869 5875 5880 5879 5881 5881 5881 5879 5878 5877 5874 5873 5871 5871 5869 5869 5868 5865 5863 5863 5861
5762 5763 5770 5774 5783 5789 5792 5798 5800 5811 5814 5815 5816 5823 5828 5837 5838 5848 5849 5848 5845 5838 5840 5845 5848 5845 5854 5854 5863 5868 5872 5873 5874 5875 5876 5877 5875 5872 5870 5867 5867 5868 5866 5863 5862 5862 5860 5857 5854
5745 5748 5753 5765 5777 5780 5780 5784 5795 5803 5802 5802 5810 5814 5821 5830 5837 5839 5841 5835 5841 5842 5838 5840 5846 5851 5851 5850 5858 5860 5861 5864 5868 5870 5872 5871 5866 5864 5864 5862 5859 5858 5858 5856 5856 5856 5851 5850 5848
5727 5732 5741 5762 5762 5765 5765 5776 5791 5788 5789 5795 5798 5806 5811 5822 5830 5832 5830 5828 5833 5835 5836 5836 5845 5850 5855 5857 5854 5854 5857 5863 5866 5868 5868 5866 5861 5860 5859 5856 5853 5852 5849 5847 5846 5846 5843 5841 5838
5715 5725 5733 5747 5750 5750 5750 5764 5773 5776 5778 5785 5792 5797 5805 5815 5822 5824 5821 5822 5828 5829 5829 5832 5838 5842 5842 5850 5849 5850 5851 5852 5854 5859 5863 5861 5860 5857 5852 5850 5847 5848 5843 5842 5843 5841 5839 5835 5832
5710 5712 5718 5724 5738 5736 5737 5748 5762 5768 5768 5778 5784 5792 5798 5809 5815 5818 5813 5817 5821 5825 5828 5828 5830 5832 5839 5836 5846 5846 5842 5845 5850 5856 5856 5855 5853 5849 5849 5847 5843 5841 5836 5834 5834 5832 5831 5829 5826
5687 5689 5698 5710 5721 5723 5725 5735 5748 5751 5758 5766 5774 5781 5791 5801 5808 5808 5805 5810 5815 5821 5820 5824 5826 5824 5828 5830 5838 5839 5840 5842 5847 5848 5848 5849 5847 5846 5844 5840 5838 5834 5831 5828 5826 5824 5823 5820 5818
5665 5671 5681 5693 5703 5707 5714 5720 5736 5735 5746 5754 5761 5770 5782 5792 5798 5800 5793 5803 5808 5815 5817 5821 5822 5822 5808 5821 5824 5829 5832 5837 5838 5841 5842 5841 5842 5838 5835 5832 5831 5828 5822 5820 5819 5816 5814 5812 5810
5647 5654 5669 5679 5691 5692 5698 5700 5714 5722 5732 5743 5751 5759 5771 5783 5789 5790 5784 5794 5802 5807 5812 5814 5817 5820 5815 5821 5821 5821 5826 5831 5833 5835 5836 5834 5832 5831 5830 5827 5823 5819 5817 5814 5808 5806 5805 5804 5802
5625 5643 5653 5661 5667 5674 5689 5683 5700 5709 5716 5727 5740 5749 5764 5774 5780 5783 5777 5787 5793 5799 5804 5807 5811 5814 5817 5815 5817 5822 5823 5823 5826 5827 5829 5829 5829 5827 5825 5821 5818 5815 5810 5805 5797 5797 5798 5796 5795
5612 5628 5629 5642 5649 5656 5667 5668 5684 5696 5703 5713 5730 5745 5754 5764 5771 5775 5775 5775 5784 5794 5799 5800 5803 5804 5809 5811 5816 5816 5816 5820 5821 5822 5823 5825 5823 5820 5816 5815 5812 5807 5802 5797 5790 5789 5791 5789 5787
5598 5601 5607 5617 5626 5622 5649 5659 5669 5684 5695 5706 5719 5735 5745 5753 5759 5765 5767 5769 5773 5785 5792 5795 5799 5804 5808 5805 5806 5806 5811 5815 5813 5815 5816 5814 5813 5812 5810 5808 5803 5798 5795 5790 5786 5784 5783 5783 5782
5586 5593 5594 5598 5601 5606 5642 5646 5656 5677 5688 5701 5715 5722 5734 5741 5748 5756 5761 5759 5771 5776 5785 5791 5794 5797 5799 5800 5801 5804 5808 5806 5807 5807 5808 5808 5807 5807 5804 5799 5795 5793 5789 5784 5779 5776 5777 5775 5775
5579 5585 5585 5590 5593 5603 5622 5620 5642 5670 5683 5695 5701 5707 5721 5733 5742 5746 5751 5747 5764 5772 5777 5781 5786 5789 5789 5792 5795 5797 5798 5799 5802 5803 5802 5801 5799 5797 5794 5791 5789 5786 5781 5776 5769 5770 5770 5770 5769
5574 5570 5580 5584 5588 5592 5601 5612 5630 5656 5672 5681 5687 5697 5709 5723 5730 5735 5741 5740 5753 5762 5769 5776 5780 5779 5782 5786 5791 5794 5796 5798 5797 5796 5795 5793 5790 5788 5787 5786 5783 5778 5774 5771 5769 5767 5765 5764 5763
5566 5572 5572 5573 5577 5580 5590 5598 5610 5636 5658 5672 5680 5688 5699 5712 5718 5721 5731 5738 5745 5754 5759 5768 5770 5773 5776 5780 5783 5786 5787 5787 5789 5789 5787 5785 5784 5784 5782 5779 5775 5773 5770 5766 5762 5760 5759 5759 5757
5563 5563 5564 5566 5571 5575 5583 5588 5606 5624 5644 5659 5672 5680 5690 5698 5705 5715 5727 5734 5741 5746 5752 5760 5762 5766 5771 5775 5778 5780 5780 5781 5781 5780 5780 5780 5779 5777 5776 5772 5771 5768 5764 5759 5757 5755 5753 5753 5752
5557 5560 5562 5560 5566 5568 5574 5583 5594 5608 5624 5643 5660 5669 5675 5687 5696 5709 5720 5726 5734 5739 5748 5752 5755 5763 5765 5768 5770 5772 5772 5773 5773 5773 5773 5773 5772 5770 5768 5767 5764 5762 5758 5756 5753 5750 5749 5746 5744